RH
23 26 26 24 24 27 29 30 28 28 28 27 27 27 24 22 20 18 17 19 20 21 19 19 18 17 14 14 14 14 20 27 28 32 36 37 39 39 39 41 43 47 51 54 53 54 59 59 56 51 45 44 42 41 45 49 53 59 63 67 70 72 77 80 79 80 78 74 73 72 68 63 58 55 55 52 45 41 41 41 38 36 37 40 43 45
24 26 25 25 29 32 33 33 31 29 28 27 27 28 25 23 20 17 18 20 22 23 22 21 21 19 16 15 15 15 19 24 27 33 36 38 38 38 39 41 42 45 49 51 53 53 56 59 54 48 45 44 41 40 44 48 52 55 57 60 64 66 69 73 73 75 76 72 70 69 65 61 58 56 54 49 43 41 40 38 35 34 33 36 39 42
27 25 24 28 32 33 33 32 31 30 28 28 28 28 27 24 21 19 19 22 23 24 26 25 24 21 18 17 17 17 18 19 24 29 33 37 38 39 39 40 39 41 45 47 50 53 56 58 52 47 47 44 41 41 42 46 50 55 56 55 59 63 64 67 70 73 74 72 72 70 64 60 59 56 52 46 41 38 36 37 37 36 34 33 35 38
30 26 24 28 31 30 31 30 30 29 29 29 28 28 27 24 24 22 21 23 25 26 27 26 26 24 19 18 17 17 18 18 21 26 31 36 39 40 40 40 38 38 42 46 49 53 56 55 48 47 49 44 42 43 42 46 48 51 55 56 59 61 62 65 70 74 77 76 74 70 65 62 59 54 48 44 41 37 37 40 40 38 35 33 32 34
30 25 26 28 30 30 31 31 30 30 29 30 30 28 26 25 25 24 22 25 27 27 28 27 29 28 22 20 19 20 22 20 22 28 34 38 40 42 42 41 40 40 42 45 48 52 56 53 47 48 48 44 44 43 42 47 49 50 54 59 60 59 62 69 73 78 81 79 73 68 66 62 57 51 47 45 43 38 39 42 41 38 35 32 30 30
30 26 26 29 30 31 31 32 31 32 30 29 29 26 25 25 25 24 25 28 29 29 30 30 33 32 24 22 23 23 24 24 27 32 37 40 41 42 42 43 44 45 45 47 49 54 54 50 47 48 46 44 45 44 44 49 51 52 55 59 60 60 64 70 76 81 81 76 70 67 65 59 53 49 46 46 43 40 42 42 41 40 37 34 31 28
30 27 27 29 30 31 31 31 30 31 30 29 29 27 25 26 26 28 31 33 32 32 34 33 33 31 23 22 26 27 28 30 33 36 40 42 43 42 42 46 48 48 47 50 53 56 53 48 47 46 45 47 46 45 46 51 55 56 58 59 60 62 65 68 75 78 76 72 69 66 62 55 50 47 47 49 48 46 47 44 42 42 40 37 34 30
27 27 27 30 33 33 32 32 31 32 31 30 30 29 28 28 29 31 33 34 35 34 35 37 35 30 26 27 29 30 35 39 38 39 43 44 42 42 44 47 49 49 50 54 57 55 51 48 47 46 47 48 47 47 49 53 57 60 60 59 60 64 66 68 72 73 72 71 66 62 59 55 50 49 51 54 54 53 51 45 41 40 38 37 35 34
27 28 29 32 36 35 33 32 33 33 32 29 30 31 29 29 30 31 32 34 35 33 33 38 38 33 32 35 33 32 38 43 43 42 44 44 42 43 45 48 51 52 55 58 56 51 50 49 49 49 49 50 49 49 51 55 60 64 64 61 61 66 69 69 68 66 69 69 64 60 59 57 53 54 58 59 58 56 52 45 41 37 35 34 34 35
28 28 29 33 35 34 32 32 33 33 32 31 31 31 30 31 30 30 33 32 32 33 33 39 40 34 35 40 38 36 37 41 45 45 44 44 44 44 45 48 51 55 59 59 55 51 52 53 52 52 54 54 51 49 52 58 63 66 65 61 63 69 71 68 65 65 68 69 66 63 61 60 60 61 62 61 60 57 50 44 40 37 35 34 33 33
31 30 30 32 32 32 31 31 32 31 31 31 32 31 30 33 33 34 39 34 31 36 34 38 42 37 37 42 41 40 39 41 47 50 46 44 44 45 46 47 51 56 61 60 56 57 59 57 55 58 58 55 52 51 54 58 60 61 60 60 64 70 69 66 66 68 68 69 70 69 67 66 66 64 60 58 58 54 49 45 43 39 37 36 34 33
34 33 33 31 30 31 31 30 31 31 30 30 34 34 33 38 37 36 40 33 32 37 35 39 44 40 40 42 43 44 43 45 50 52 50 47 46 45 46 48 51 57 62 60 60 63 64 62 61 61 60 57 56 55 55 56 57 57 59 60 63 66 68 66 66 68 69 70 70 71 73 72 67 61 55 55 55 53 51 50 47 43 40 39 38 38
36 34 34 31 30 31 32 33 33 32 31 31 36 38 38 41 39 40 46 39 34 36 35 40 43 43 45 45 46 49 49 50 51 52 53 51 48 47 48 51 54 58 59 58 63 66 64 65 65 62 61 61 60 57 55 55 55 57 60 60 61 63 66 66 67 69 70 70 68 69 74 72 66 60 55 54 56 54 54 53 48 44 43 42 42 43
35 33 32 30 31 32 32 34 35 35 33 32 37 38 39 43 43 49 55 45 35 33 35 41 40 41 50 52 50 52 53 54 52 52 55 55 52 50 50 54 58 60 61 62 64 64 66 68 67 64 62 63 61 57 55 55 54 57 59 59 60 60 62 66 70 71 72 70 66 67 72 70 67 62 56 55 56 55 56 54 48 44 43 43 43 44
38 35 33 30 31 33 34 35 36 38 36 36 39 37 37 43 45 49 52 45 37 36 40 44 40 43 54 56 53 53 53 55 53 53 55 57 59 57 54 58 64 65 65 66 66 65 69 72 70 67 63 61 59 57 57 57 56 57 59 61 61 59 61 67 70 72 72 71 66 66 69 68 67 64 56 55 56 55 57 56 49 43 43 45 45 45
38 36 34 31 32 34 36 38 38 38 40 42 41 35 34 38 40 45 50 49 46 46 51 55 54 56 59 55 54 54 52 52 54 55 56 57 61 65 64 65 68 69 69 69 68 68 69 71 70 66 61 58 57 59 60 60 57 57 59 62 61 60 63 68 71 72 72 71 68 68 70 68 66 63 57 55 55 55 57 56 48 43 45 46 46 45
38 35 34 33 34 35 37 41 40 39 43 46 41 35 35 35 37 44 48 50 49 50 56 64 66 66 62 57 56 54 52 52 54 57 59 57 58 65 74 76 72 69 70 69 68 67 67 68 66 62 59 59 59 61 61 59 57 58 60 62 61 60 64 67 71 71 71 72 69 69 70 66 65 64 58 54 53 54 56 54 48 46 47 47 48 46
41 35 35 35 36 37 38 40 41 39 41 44 40 38 37 34 38 45 51 56 55 52 57 66 70 69 67 65 59 54 53 54 54 58 62 61 57 61 75 87 84 73 69 69 68 68 69 69 65 61 61 61 61 61 59 57 58 59 62 62 60 61 64 67 71 71 72 72 68 68 70 66 65 64 57 53 52 52 53 52 50 50 50 50 50 46
48 39 38 38 39 42 41 40 44 44 40 38 40 40 39 39 44 46 47 53 54 55 60 67 70 69 68 67 62 59 61 59 57 63 71 71 64 64 74 87 89 81 73 72 71 70 72 71 67 63 62 61 60 60 57 55 55 58 64 65 64 67 69 71 74 73 73 71 69 72 71 65 63 61 55 52 51 50 50 53 55 56 55 53 52 47
55 46 41 43 43 43 43 44 46 47 43 38 39 40 39 44 50 47 44 45 47 57 65 66 68 69 67 65 64 67 70 66 61 66 77 80 73 71 77 81 85 84 77 73 72 71 72 73 70 64 62 60 59 58 58 58 60 65 72 73 71 73 74 76 76 75 74 71 69 71 68 61 59 57 55 54 52 51 52 56 59 60 58 54 51 47
61 53 46 47 45 41 47 51 47 46 44 40 40 41 39 41 45 45 46 43 41 54 66 66 68 67 63 62 65 71 74 69 64 62 70 81 81 76 76 77 82 85 80 74 71 71 73 74 71 65 61 59 57 58 61 64 69 74 77 76 74 75 78 79 76 71 69 67 67 68 63 58 56 56 58 58 55 53 54 57 58 59 58 53 49 44
66 61 51 51 49 45 50 53 47 44 45 43 43 45 44 43 43 43 45 44 42 50 58 60 64 63 60 61 63 69 73 67 65 63 64 77 84 79 77 82 85 86 84 79 74 72 73 72 70 66 62 58 57 60 64 67 69 72 73 75 77 78 78 77 74 69 65 64 66 65 61 58 57 58 59 60 59 56 55 57 57 56 54 48 43 40
70 68 58 54 53 49 51 49 45 45 48 49 48 47 45 45 46 45 47 48 45 47 50 54 63 65 63 64 63 66 71 67 67 73 74 82 89 86 85 88 88 86 85 82 77 75 75 73 70 67 64 62 60 63 66 68 69 70 72 78 81 80 78 76 75 74 71 70 69 66 63 62 61 61 61 60 59 57 56 57 55 55 52 43 37 38
74 72 62 58 58 55 52 49 45 46 51 55 54 50 47 48 49 49 51 51 46 46 49 53 63 68 67 68 66 65 71 72 74 81 84 88 94 92 89 89 89 88 86 81 78 78 76 75 72 69 68 66 64 65 67 69 70 71 75 78 77 78 82 82 79 78 77 77 74 70 68 67 66 65 63 60 58 57 56 57 57 57 53 42 35 37
75 74 67 62 62 61 58 53 49 49 53 57 58 53 48 50 52 50 50 50 47 46 47 49 60 68 68 69 68 68 73 78 80 84 84 84 90 91 90 90 90 87 83 79 77 76 75 75 73 71 69 68 68 69 71 71 70 71 76 76 72 75 82 84 83 83 83 82 80 77 75 73 72 69 66 63 60 59 58 56 58 60 52 40 35 37
75 79 77 71 68 67 67 63 57 54 56 60 60 56 51 51 53 51 50 50 48 47 49 52 60 67 67 67 70 72 77 81 83 83 82 83 87 89 90 90 89 85 82 78 76 74 74 74 73 72 71 71 75 77 77 76 75 77 80 77 74 76 78 81 86 87 85 83 83 83 81 80 78 74 71 70 68 66 62 58 58 56 48 40 38 38
78 83 82 78 72 67 67 66 60 58 60 63 63 60 57 54 53 52 51 51 51 52 54 58 62 65 67 68 71 75 78 81 83 83 83 85 88 90 91 90 87 84 83 80 77 76 75 74 73 73 72 75 79 81 82 81 81 83 83 81 83 83 79 80 85 85 83 83 83 82 81 81 80 76 73 73 74 73 68 63 58 50 45 44 42 40
83 82 79 79 75 69 67 65 62 62 63 64 66 65 62 58 56 55 54 55 55 53 56 63 65 65 66 69 74 77 76 76 78 80 82 84 87 90 91 90 87 83 84 83 80 78 76 75 74 73 74 76 79 81 84 84 81 80 82 84 88 87 84 85 88 88 85 81 80 79 77 77 78 76 75 74 75 76 73 69 62 52 48 47 45 43
82 82 80 81 80 77 74 70 67 67 65 64 68 69 67 64 61 60 62 63 59 54 55 63 66 68 68 72 77 77 72 72 74 75 77 80 83 84 83 84 83 81 80 80 78 77 76 74 74 74 74 76 79 82 84 82 77 76 81 83 83 82 84 89 92 90 84 80 79 79 77 78 81 80 79 80 79 78 75 70 65 59 53 47 45 46
80 82 83 86 86 83 80 77 73 70 68 67 67 68 70 69 65 64 66 66 63 59 60 63 66 71 74 74 75 73 71 75 76 74 76 78 81 81 76 74 76 75 75 75 73 73 74 73 74 75 77 78 79 78 77 76 75 79 84 82 79 80 82 86 90 88 85 86 86 84 83 85 86 83 81 81 80 78 77 71 66 63 56 49 47 48
77 82 84 88 90 88 84 83 80 75 72 71 69 69 70 71 71 70 69 68 67 66 66 66 68 73 75 72 69 68 71 74 74 73 75 77 78 76 73 72 71 70 71 71 72 73 75 76 76 76 77 78 78 76 75 76 77 80 82 79 78 80 80 82 85 83 85 89 87 85 88 88 85 81 78 78 77 78 81 76 69 66 61 55 52 49
75 80 83 88 93 93 89 87 87 83 79 77 75 73 72 73 76 77 74 72 70 69 71 72 72 72 72 70 68 68 68 69 70 73 76 77 75 74 73 73 72 69 70 71 73 75 76 77 77 77 77 78 77 76 76 77 76 78 80 78 77 80 79 80 83 81 82 87 85 86 90 87 81 77 77 78 75 77 83 80 75 73 67 61 57 52
73 74 80 86 93 95 93 92 92 90 88 86 83 79 77 75 77 80 80 77 74 72 72 74 72 70 71 71 72 72 71 70 73 78 81 81 79 78 76 74 72 71 71 71 72 73 73 74 75 76 77 77 75 74 74 75 76 77 79 79 78 78 78 79 81 80 81 84 84 84 84 82 78 75 79 81 76 75 83 85 81 76 69 63 61 58
73 71 75 81 87 91 91 94 95 94 94 92 87 84 83 80 78 81 82 80 79 77 75 73 72 71 73 75 77 78 78 79 80 83 87 87 84 82 79 74 72 74 73 72 70 70 70 71 71 72 73 72 72 72 72 73 75 75 76 77 77 78 77 77 79 79 79 78 78 77 75 76 75 76 79 80 74 74 80 84 82 78 70 65 64 62
74 73 76 79 83 86 89 93 97 98 98 95 91 88 86 83 82 82 81 80 80 80 80 79 76 73 76 80 82 83 84 85 86 87 89 88 86 86 83 77 75 77 77 76 74 73 73 72 71 72 72 72 71 70 71 73 73 73 72 73 74 74 74 74 74 74 74 73 73 74 74 74 75 76 77 77 75 75 75 75 77 79 77 74 70 66
74 75 80 81 81 84 89 94 98 99 98 97 94 92 89 88 88 88 87 85 84 84 88 89 85 80 82 84 84 83 82 84 87 88 88 88 87 87 86 82 78 79 80 79 78 77 77 76 76 76 75 74 74 72 73 75 75 74 72 71 71 71 70 71 70 69 70 70 70 71 73 73 73 74 76 76 73 71 70 70 73 77 79 79 77 76
75 76 80 81 80 83 88 93 97 98 99 98 96 94 93 92 93 93 93 93 90 88 91 93 90 87 86 85 84 83 83 86 90 89 86 87 88 88 86 84 81 81 82 81 79 78 78 78 80 80 78 78 80 80 79 79 79 77 75 74 73 71 69 69 69 68 67 67 67 68 69 69 69 70 73 73 70 67 67 69 70 73 77 80 84 85
74 75 76 77 80 83 85 89 93 95 97 97 96 95 93 91 93 95 95 96 93 89 89 91 91 89 88 88 87 88 89 93 96 93 87 87 88 86 84 81 80 82 83 82 81 79 78 79 81 81 80 80 83 85 86 86 85 83 81 81 81 79 77 75 73 71 69 68 68 69 70 70 69 68 68 69 68 67 67 70 71 73 75 78 80 81
70 72 72 72 77 80 80 83 88 91 92 92 93 94 92 90 92 94 95 95 93 91 91 92 92 91 92 91 90 90 92 93 94 91 89 88 87 84 80 76 76 79 80 80 79 78 76 76 76 77 76 75 75 77 79 83 85 85 84 84 85 85 84 84 83 81 79 78 76 74 74 72 72 72 72 71 71 70 69 71 74 75 76 76 74 70
71 73 72 72 77 79 77 80 84 86 86 88 90 91 90 88 89 90 93 94 91 90 91 90 91 92 91 89 88 90 92 92 90 88 87 86 85 82 80 76 74 74 74 74 74 74 72 70 69 69 69 69 69 70 70 73 77 80 81 81 82 83 82 83 83 82 81 82 82 80 78 75 75 76 76 76 76 74 72 71 72 74 75 75 74 72
77 78 77 77 80 81 80 83 86 85 83 85 86 86 84 85 86 88 91 91 86 86 89 89 89 90 88 87 88 89 89 87 83 83 81 80 81 82 81 79 77 75 74 73 73 73 72 70 70 72 73 73 73 72 70 70 72 75 76 77 78 80 81 81 80 79 76 75 75 75 75 75 76 75 73 73 74 73 71 71 72 72 71 71 72 72
78 80 81 79 81 84 86 87 89 88 85 82 82 81 79 83 88 87 86 84 81 84 89 90 88 86 85 86 87 87 86 82 79 78 78 77 78 80 82 82 82 82 81 80 78 77 75 74 75 79 81 81 79 77 76 74 73 75 76 76 79 81 82 82 81 80 78 75 73 71 70 70 71 71 72 73 73 73 72 71 72 72 71 70 71 70
78 82 85 83 82 85 88 89 91 92 88 84 83 83 83 86 87 83 82 82 81 83 88 90 88 86 85 85 85 84 83 82 80 79 78 78 77 78 79 80 80 80 81 81 81 80 78 77 79 81 82 82 80 80 79 77 77 78 77 77 80 82 82 82 81 79 78 77 74 73 71 71 72 72 73 74 73 73 72 71 70 69 70 70 71 71
78 81 84 85 84 86 90 92 92 91 88 86 86 86 87 86 82 79 81 83 82 83 86 88 88 86 85 85 85 85 84 83 82 81 81 80 78 77 78 78 77 78 78 78 78 78 78 79 82 82 83 84 83 82 82 81 82 83 83 84 86 85 84 84 83 81 80 78 76 75 74 73 73 73 72 72 71 71 70 70 70 70 70 70 70 69
74 73 75 79 82 85 89 90 89 86 84 85 84 84 86 84 81 80 82 82 83 85 85 86 86 87 86 86 86 86 85 83 81 80 80 80 79 77 77 77 76 77 76 76 77 78 78 80 82 83 83 83 84 83 82 82 83 84 86 87 88 87 86 85 84 82 80 78 77 75 74 73 72 70 69 69 69 69 68 69 69 69 68 68 67 66
64 63 64 70 74 77 81 83 84 83 82 82 81 81 82 82 81 81 81 81 84 87 88 88 88 88 88 88 88 87 86 82 81 81 83 83 82 81 80 77 74 73 72 72 72 75 78 79 80 81 82 81 81 80 79 80 81 81 82 82 82 81 81 79 77 77 75 74 73 72 71 70 70 69 68 67 67 67 67 66 65 65 65 64 63 62
54 53 54 58 63 67 72 74 76 76 74 74 74 73 74 76 78 79 78 79 82 85 87 88 89 88 88 88 87 87 87 85 84 85 86 85 85 84 83 81 78 75 74 72 71 73 78 78 77 78 79 79 78 77 76 76 77 77 77 76 76 74 73 71 70 70 69 69 69 68 67 66 65 64 64 63 62 61 60 59 58 57 56 55 55 54
47 47 48 51 55 57 60 62 63 62 61 63 65 65 65 68 71 72 73 75 78 80 83 85 87 88 89 88 88 87 85 83 82 82 83 83 84 83 82 82 81 78 76 75 72 74 78 78 77 78 78 78 77 77 75 74 73 72 71 70 68 66 64 63 62 62 62 61 60 60 60 59 58 58 57 56 55 54 53 52 51 49 49 48 47 46
41 43 43 45 48 49 50 52 52 51 50 51 54 57 58 58 60 62 65 69 71 74 77 79 82 85 86 87 87 85 83 81 79 79 79 80 80 80 80 80 79 78 77 75 72 73 76 76 76 77 76 75 75 75 74 73 72 71 69 67 65 62 59 58 58 56 56 55 54 54 54 53 53 53 52 51 50 48 47 46 45 43 43 42 41 40
42 43 42 44 48 49 49 48 47 49 49 47 47 49 51 52 53 55 57 60 62 64 67 70 72 74 74 75 76 76 75 74 72 71 71 71 71 72 72 73 73 73 72 71 70 72 74 75 75 75 74 72 72 71 70 70 71 71 69 67 64 61 58 57 56 54 53 52 51 50 49 48 47 47 45 44 43 41 40 40 39 38 36 35 36 36
42 40 42 47 49 49 48 45 43 44 46 46 44 44 45 46 47 47 48 50 52 56 58 59 60 60 60 61 61 61 62 62 60 60 60 60 61 61 62 64 64 62 61 59 59 62 67 70 72 72 70 68 67 64 63 65 66 66 64 61 58 55 54 52 50 49 48 48 48 47 46 45 44 43 42 41 39 38 38 38 38 38 37 37 37 38